Starlink 30132

operational
NORAD ID: 56703 Int'l Des: 2023-067 Owner: SPXS Country: US Constellation: starlink
LEOCIRCULAR

Starlink 30132について

説明を読み込み中...

リアルタイム位置

3D地球を読み込み中...

次回通過

高度履歴

Altitude vs Time

uPlot chart will show altitude changes over time

軌道要素

1 56703U 23067R 25352.41070610 -.00000323 00000-0 -88521-5 0 9994
2 56703 43.0043 356.0966 0001162 278.3401 81.7309 15.02532859143430
Epoch: Dec 18, 2025 • Age: 15 hours

現在のステータス

高度 559.8 km
速度 7.59 km/s
衛星直下点 26.72°N, 39.88°E
打ち上げ日 May 19, 2023
運用期間 2.5 years
タイプ internet

技術仕様

分類 Payload
質量 730.00 kg
乾燥質量 700.00 kg
総質量 730.00 kg
長さ 0.30 m
直径 4.10 m
スパン 29.00 m
形状 Box + pan
製造者 SPXS
バスタイプ Starlink V2M
フェーズステータス In Orbit
所有者/国 SPXS/US

大規模コンステレーション

Loading constellations...